Regional Weather Roundup
Issued by NWS Burlington, VT

Home | Current Version | Previous Version | Text Only | Print | Product List | Glossary On
Versions: 1 2 3 4 5 6 7 8 9 10 11 12 13 14 15 16 17 18 19 20 21 22 23 24 25 26 27 28 29 30 31 32 33 34 35 36 37 38 39 40 41 42 43 44 45 46 47 48 49 50
000
ASUS41 KBTV 070630
RWRBTV
VERMONT REGIONAL WEATHER ROUNDUP
NATIONAL WEATHER SERVICE BURLINGTON VT
200 AM EDT THU MAY 07 2015

NOTE: "FAIR" INDICATES FEW OR NO CLOUDS BELOW 12,000 FEET WITH NO
SIGNIFICANT WEATHER AND/OR OBSTRUCTIONS TO VISIBILITY.

* THESE REPORTS ARE NOT UNDER NWS QUALITY CONTROL AND/OR DO NOT
  REPORT WEATHER SUCH AS PRECIPITATION AND FOG.

VTZ001>019-070700-
_____VERMONT_____


CITY           SKY/WX    TMP DP  RH WIND       PRES   REMARKS
BURLINGTON     CLEAR     52  38  58 E3        30.16F
6HR MIN TEMP:  49; 6HR MAX TEMP:  72;

MONTPELIER     CLEAR     46  34  62 CALM      30.22F
6HR MIN TEMP:  45; 6HR MAX TEMP:  65;

MORRISVILLE    CLEAR     44  37  76 CALM      30.19S
6HR MIN TEMP:  43; 6HR MAX TEMP:  63;

ST. JOHNSBURY*   N/A     46  38  73 MISG      30.16F
6HR MIN TEMP:  46; 6HR MAX TEMP:  69;

LYNDONVILLE*     N/A     48  33  56 CALM      30.19S
6HR MIN TEMP:  48; 6HR MAX TEMP:  65;

MIDDLEBURY*      N/A     50  37  60 CALM      30.19S
6HR MIN TEMP:  50; 6HR MAX TEMP:  67;

RUTLAND*       CLEAR     46  30  53 SE10      30.21S
6HR MIN TEMP:  46; 6HR MAX TEMP:  66;

SPRINGFIELD    CLEAR     44  37  76 CALM      30.22R
6HR MIN TEMP:  43; 6HR MAX TEMP:  65;

HIGHGATE*        N/A     52  36  55 CALM      30.16R
6HR MIN TEMP:  52; 6HR MAX TEMP:  67;

NEWPORT*         N/A     49  36  61 SW6       30.17S
6HR MIN TEMP:  46; 6HR MAX TEMP:  64;

BENNINGTON     CLEAR     47  37  68 CALM      30.21F
6HR MIN TEMP:  45; 6HR MAX TEMP:  63;

SUTTON*          N/A     54 N/A N/A MISG        N/A
GALLUP MILLS*    N/A     39 N/A N/A MISG        N/A
MT. MANSFIELD*   N/A     50 N/A N/A CALM        N/A

_____LAKE CHAMPLAIN_____


CITY           SKY/WX    TMP DP  RH WIND       PRES   REMARKS
BURTON ISLAND*   N/A     55  45  67 S6          N/A
COLCHESTER RF*   N/A     54  37  54 S12         N/A
DIAMOND ISL*     N/A     55  45  67 SW1         N/A

$$

NYZ007-026>031-035-052-083-070700-
_____NORTHERN NEW YORK_____


CITY           SKY/WX    TMP DP  RH WIND       PRES   REMARKS
PLATTSBURGH    CLEAR     49  37  63 S3        30.14F
6HR MIN TEMP:  49; 6HR MAX TEMP:  63;

SARANAC LAKE   CLEAR     35  31  85 SW3       30.20S
6HR MIN TEMP:  34; 6HR MAX TEMP:  64;

MASSENA        PTCLDY    52  38  58 SW3       30.17S
6HR MIN TEMP:  47; 6HR MAX TEMP:  70;

OGDENSBURG*    CLEAR     46  45  93 CALM      30.18S
POTSDAM*       CLEAR     54  37  54 SW7       30.18S
STARK FALLS*     N/A     52 N/A N/A SE10        N/A
WATERTOWN      CLEAR     42  38  85 CALM      30.19S
6HR MIN TEMP:  42; 6HR MAX TEMP:  64;

FT DRUM        CLEAR     53  41  65 S6        30.19S
6HR MIN TEMP:  50; 6HR MAX TEMP:  66;

ALBANY         CLEAR     58  40  51 CALM      30.21S
6HR MIN TEMP:  55; 6HR MAX TEMP:  71;

GLENS FALLS    CLEAR     49  38  65 N3        30.20S
6HR MIN TEMP:  48; 6HR MAX TEMP:  67;


$$
NHZ002-005-011-070700-
_____NEW HAMPSHIRE_____


CITY           SKY/WX    TMP DP  RH WIND       PRES   REMARKS
LEBANON        CLEAR     41  35  79 S3        30.20S
6HR MIN TEMP:  40; 6HR MAX TEMP:  63;

KEENE          CLEAR     45  39  81 CALM      30.22S
6HR MIN TEMP:  45; 6HR MAX TEMP:  70;

MT WASHINGTON  PTCLDY    37  28  70 NW45        N/A
6HR MIN TEMP:  37; 6HR MAX TEMP:  40;

PLYMOUTH         N/A     41  41 100 CALM      30.20S
6HR MIN TEMP:  41; 6HR MAX TEMP:  64;

WHITEFIELD     CLEAR     38  34  85 CALM      30.17F
6HR MIN TEMP:  38; 6HR MAX TEMP:  65;


$$

_____REGIONAL QUEBEC LOCATIONS_____


CITY           SKY/WX    TMP DP  RH WIND       PRES   REMARKS
MONTREAL       PTCLDY    57  39  51 SW3       30.13F
QUEBEC CITY    CLEAR     46  39  76 SW6       30.09F
SHERBROOKE     CLEAR     43  37  81 E5        30.13F

_____REGIONAL ONTARIO LOCATIONS_____


CITY           SKY/WX    TMP DP  RH WIND       PRES   REMARKS
OTTAWA         CLEAR     55  36  47 SW5       30.17R

______KEY______
VSB  - VISIBILITY IN MILES
WCI  - WIND CHILL INDEX
HX   - HEAT INDEX
$$
NNNN


USA.gov is the U.S. government's official web portal to all federal, state and local government web resources and services.